AI4ZL Weather Reports


time (UTC)temp
C
wind
direction
speed
KPH
gust
KPH
rain 1hr
cm
rain 24hr
cm
rain mn
cm
humidity
%
barometer
mb
20220812000212 28 125 0.0 1.6 0.00 0.00 0.00 62 1018.9
20220811235102 28 179 0.0 1.6 0.00 0.00 0.00 62 1018.9
20220811234052 28 150 1.6 3.2 0.00 0.00 0.00 61 1018.9
20220811233042 28 134 0.0 3.2 0.00 0.00 0.00 62 1018.8
20220811232032 29 177 1.6 4.8 0.00 0.00 0.00 61 1018.8
20220811231022 30 320 3.2 6.4 0.00 0.00 0.00 60 1018.7
20220811230113 30 301 3.2 6.4 0.00 0.00 0.00 58 1018.9
20220811225103 30 341 3.2 4.8 0.00 0.00 0.00 59 1018.8
20220811224053 31 350 3.2 11.3 0.00 0.00 0.00 57 1018.9
20220811223043 31 152 1.6 3.2 0.00 0.00 0.00 55 1018.9
20220811222033 31 316 1.6 4.8 0.00 0.00 0.00 56 1018.8
20220811221023 32 129 1.6 3.2 0.00 0.00 0.00 54 1018.8
20220811220114 32 344 1.6 4.8 0.00 0.00 0.00 53 1018.7
20220811215104 32 300 1.6 4.8 0.00 0.00 0.00 53 1018.8
20220811214134 32 201 1.6 4.8 0.00 0.00 0.00 53 1018.8
20220811213144 31 344 3.2 9.7 0.00 0.00 0.00 55 1018.9
20220811212134 32 214 1.6 4.8 0.00 0.00 0.00 52 1018.9
20220811211124 31 250 1.6 3.2 0.00 0.00 0.00 56 1019.0
20220811205104 32 154 0.0 3.2 0.00 0.00 0.00 52 1019.2
20220811204054 31 290 1.6 3.2 0.00 0.00 0.00 55 1019.1
20220811203044 32 259 1.6 3.2 0.00 0.00 0.00 54 1019.2
20220811202034 32 155 1.6 3.2 0.00 0.00 0.00 54 1019.1
20220811201104 32 244 3.2 4.8 0.00 0.00 0.00 54 1019.4
20220811200115 33 181 1.6 3.2 0.00 0.00 0.00 52 1019.4
20220811193145 32 111 1.6 6.4 0.00 0.00 0.00 53 1019.7
20220811192035 32 300 1.6 6.4 0.00 0.00 0.00 53 1019.8
20220811191045 32 325 1.6 4.8 0.00 0.00 0.00 53 1019.9
20220811190116 32 14 1.6 6.4 0.00 0.00 0.00 54 1020.1
20220811185106 32 213 1.6 4.8 0.00 0.00 0.00 54 1020.3
20220811184056 31 142 1.6 3.2 0.00 0.00 0.00 57 1020.3
20220811183046 31 309 3.2 4.8 0.00 0.00 0.00 57 1020.4
20220811182036 30 332 1.6 4.8 0.00 0.00 0.00 58 1020.5
20220811181028 30 131 0.0 4.8 0.00 0.00 0.00 58 1020.5
20220811180117 30 280 1.6 4.8 0.00 0.00 0.00 59 1020.7
20220811175107 31 98 1.6 4.8 0.00 0.00 0.00 60 1020.8
20220811174057 31 114 1.6 4.8 0.00 0.00 0.00 58 1020.7
20220811173107 30 294 1.6 4.8 0.00 0.00 0.00 60 1020.8
20220811172036 29 313 0.0 3.2 0.00 0.00 0.00 63 1020.9
20220811171028 30 243 1.6 3.2 0.00 0.00 0.00 61 1021.0
20220811170016 29 151 1.6 3.2 0.00 0.00 0.00 64 1021.0
20220811165107 28 314 1.6 3.2 0.00 0.00 0.00 64 1021.2
20220811164057 30 300 1.6 4.8 0.00 0.00 0.00 60 1021.2
20220811163047 30 165 1.6 4.8 0.00 0.00 0.00 63 1021.2
20220811162038 30 60 1.6 4.8 0.00 0.00 0.00 61 1021.1
20220811161027 30 342 3.2 4.8 0.00 0.00 0.00 62 1021.2
20220811160017 30 176 1.6 3.2 0.00 0.00 0.00 63 1021.2
20220811155108 29 240 1.6 4.8 0.00 0.00 0.00 64 1021.3
20220811154058 30 289 1.6 6.4 0.00 0.00 0.00 64 1021.2
20220811153048 29 103 1.6 4.8 0.00 0.00 0.00 64 1021.2
20220811152058 28 158 0.0 4.8 0.00 0.00 0.00 66 1021.2
20220811151048 28 2 3.2 4.8 0.00 0.00 0.00 67 1021.2
20220811150038 27 126 1.6 3.2 0.00 0.00 0.00 69 1021.1
20220811145149 27 354 1.6 4.8 0.00 0.00 0.00 70 1021.1
20220811144119 27 313 1.6 3.2 0.00 0.00 0.00 71 1021.0
20220811143049 27 51 1.6 3.2 0.00 0.00 0.00 72 1021.0
20220811142039 26 317 1.6 3.2 0.00 0.00 0.00 73 1021.0
20220811141029 26 14 1.6 3.2 0.00 0.00 0.00 73 1021.0
20220811140039 26 137 1.6 3.2 0.00 0.00 0.00 73 1021.0
20220811135110 25 9 1.6 4.8 0.00 0.00 0.00 76 1021.0
20220811134100 25 45 1.6 3.2 0.00 0.00 0.00 76 1021.1
20220811133050 25 142 0.0 1.6 0.00 0.00 0.00 77 1021.1
20220811132040 23 114 0.0 3.2 0.00 0.00 0.00 80 1021.1
20220811131031 23 17 1.6 3.2 0.00 0.00 0.00 82 1021.2
20220811130020 22 16 1.6 3.2 0.00 0.00 0.00 83 1021.1
20220811125110 22 153 0.0 1.6 0.00 0.00 0.00 84 1021.0
20220811124101 22 47 0.0 1.6 0.00 0.00 0.00 86 1020.9
20220811123050 21 0.0 1.6 0.00 0.00 0.00 90 1020.8
20220811122041 20 240 0.0 1.6 0.00 0.00 0.00 93 1021.0
20220811121030 20 0.0 0.0 0.00 0.00 0.00 94 1020.6
20220811120020 19 167 0.0 1.6 0.00 0.00 0.00 95 1020.5
20220811115114 19 6 0.0 1.6 0.00 0.00 0.00 96 1020.5
20220811114101 19 49 0.0 1.6 0.00 0.00 0.00 97 1020.6
20220811113051 18 98 0.0 1.6 0.00 0.00 0.00 97 1020.4
20220811112101 18 0.0 0.0 0.00 0.00 0.00 97 1020.3
20220811111031 18 0.0 0.0 0.00 0.00 0.00 97 1020.4
20220811110021 18 0.0 0.0 0.00 0.00 0.00 97 1020.4
20220811105112 19 0.0 1.6 0.00 0.00 0.00 96 1020.3
20220811104122 19 0.0 1.6 0.00 0.00 0.00 96 1020.4
20220811103152 19 220 0.0 1.6 0.00 0.00 0.00 95 1020.2
20220811102142 19 0.0 0.0 0.00 0.00 0.00 94 1020.1
20220811101212 20 0.0 0.0 0.00 0.00 0.00 93 1020.1
20220811100202 20 0.0 0.0 0.00 0.00 0.00 93 1020.2
20220811095213 20 123 0.0 1.6 0.00 0.00 0.00 93 1020.2
20220811094203 20 0.0 0.0 0.00 0.00 0.00 92 1020.3
20220811093153 20 79 0.0 1.6 0.00 0.00 0.00 93 1020.1
20220811092149 19 55 0.0 1.6 0.00 0.00 0.00 95 1020.2
20220811091033 19 26 0.0 1.6 0.00 0.00 0.00 97 1020.2
20220811090023 18 0.0 0.0 0.00 0.00 0.00 97 1020.3
20220811085114 18 0.0 0.0 0.00 0.00 0.00 97 1020.1
20220811084104 18 0.0 0.0 0.00 0.00 0.00 97 1020.2
20220811083134 18 0.0 1.6 0.00 0.00 0.00 97 1020.2
20220811082143 18 0.0 1.6 0.00 0.00 0.00 97 1020.4
20220811081133 18 0.0 0.0 0.00 0.00 0.00 97 1020.5
20220811080124 18 0.0 0.0 0.00 0.00 0.00 97 1020.5
20220811075215 18 0.0 0.0 0.00 0.00 0.00 97 1020.5
20220811074124 19 0.0 0.0 0.00 0.00 0.00 97 1020.4
20220811073114 19 0.0 0.0 0.00 0.00 0.00 97 1020.4
20220811072124 19 0.0 0.0 0.00 0.00 0.00 96 1020.5
20220811071054 19 0.0 0.0 0.00 0.00 0.00 96 1020.6
20220811070044 19 0.0 0.0 0.00 0.00 0.00 96 1020.6
20220811065135 20 0.0 0.0 0.00 0.00 0.00 96 1020.7
20220811064125 20 0.0 0.0 0.00 0.00 0.00 96 1020.6
20220811063115 20 164 0.0 1.6 0.00 0.00 0.00 95 1020.7
20220811062106 20 0.0 0.0 0.00 0.00 0.00 94 1020.6
20220811061035 20 286 0.0 1.6 0.00 0.00 0.00 93 1020.5
20220811060025 20 0.0 1.6 0.00 0.00 0.00 93 1020.5
20220811055116 21 0.0 0.0 0.00 0.00 0.00 92 1020.6
20220811054106 21 0.0 0.0 0.00 0.00 0.00 92 1020.5
20220811053057 21 0.0 0.0 0.00 0.00 0.00 91 1020.5
20220811052046 22 0.0 0.0 0.00 0.00 0.00 90 1020.6
20220811051036 22 323 0.0 1.6 0.00 0.00 0.00 90 1020.6
20220811050026 22 0.0 0.0 0.00 0.00 0.00 91 1020.6
20220811045117 22 0.0 0.0 0.00 0.00 0.00 91 1020.7
20220811044107 22 0.0 0.0 0.00 0.00 0.00 90 1020.7
20220811043117 22 0.0 1.6 0.00 0.00 0.00 90 1020.7
20220811042107 22 0.0 1.6 0.00 0.00 0.00 89 1020.5
20220811041057 23 37 0.0 3.2 0.00 0.00 0.00 90 1020.5
20220811040046 22 340 1.6 1.6 0.00 0.00 0.00 91 1020.6
20220811035138 22 260 1.6 1.6 0.00 0.00 0.00 93 1020.8
20220811034127 22 0.0 1.6 0.00 0.00 0.00 94 1020.9
20220811033117 22 184 0.0 1.6 0.00 0.00 0.00 95 1020.9
20220811032107 22 183 0.0 1.6 0.00 0.03 0.00 94 1020.9
20220811031057 22 0.0 1.6 0.00 0.05 0.00 95 1021.1
20220811030047 22 0.0 0.0 0.00 0.05 0.00 94 1021.0
20220811025037 22 0.0 0.0 0.00 0.05 0.00 94 1020.9
20220811024128 22 0.0 1.6 0.00 0.05 0.00 93 1020.8
20220811023118 22 0.0 0.0 0.00 0.05 0.00 93 1020.9
20220811022108 22 0.0 0.0 0.00 0.05 0.00 91 1020.7
20220811021038 22 253 0.0 1.6 0.00 0.05 0.00 91 1020.6
20220811020028 22 297 0.0 1.6 0.00 0.05 0.00 93 1020.6
20220811015018 22 90 0.0 1.6 0.00 0.05 0.00 92 1020.3
20220811014109 23 0.0 0.0 0.00 0.05 0.00 90 1020.4
20220811013059 23 90 0.0 1.6 0.00 0.05 0.00 89 1020.1
20220811012049 23 0.0 0.0 0.00 0.05 0.00 88 1020.1
20220811011039 24 0.0 0.0 0.00 0.05 0.00 85 1020.0
20220811010029 24 0.0 0.0 0.00 0.05 0.00 84 1019.9
20220811005019 25 82 0.0 1.6 0.00 0.05 0.00 82 1019.8
20220811004110 25 0.0 1.6 0.00 0.05 0.00 81 1019.9
20220811003200 25 103 0.0 1.6 0.00 0.05 0.00 79 1019.8
20220811002150 26 114 0.0 1.6 0.00 0.05 0.00 77 1019.7
20220811001142 26 0.0 1.6 0.00 0.05 0.00 76 1019.6